Location: Glens Falls
(43.3090°N, 73.6440°W)
Time: 05:03:44
(UTC-04:00)

Cosmos 1184 Rocket - Pass Details

Date: 24 February 2018
Orbit: 416 x 434 km, 81.2° (Epoch: 19 June)

Event Time Altitude Azimuth Distance (km) Brightness Sun altitude
Rises 18:33:40 0° 5° (N) 2,377 6.5 -11.0°
Reaches altitude 10° 18:36:07 10° 23° (NNE) 1,505 5.3 -11.4°
Maximum altitude 18:38:33 19° 72° (ENE) 1,059 4.2 -11.9°
Enters shadow 18:38:38 19° 74° (ENE) 1,059 4.2 -11.9°
